Location: Peterborough
(44.3091°N, 78.3197°W)
Time: 23:49:06
(UTC-04:00)

SR - Pass Details

Date: 31 March 2023
Orbit: 581 x 867 km, 66.7° (Epoch: 02 June)

Event Time Altitude Azimuth Distance (km) Brightness Sun altitude
Rises 00:39:30 0° 164° (SSE) 3,005 - -40.9°
Reaches altitude 10° 00:42:48 10° 141° (SE) 2,038 - -41.0°
Maximum altitude 00:45:16 15° 108° (ESE) 1,719 - -41.1°
Drops below altitude 10° 00:47:41 10° 75° (ENE) 1,972 - -41.2°
Sets 00:50:46 0° 51° (NE) 2,845 - -41.3°
